Back to catalog

ATLAS 5 CENTAUR DEB

AliveHEO
NORAD 49342·DEBRIS·🇺🇸 United States

Launched Oct 17, 2018 from Cape Canaveral Space Force Station

Loading…

Next Passes (next 24 hours)

TLE

FreshSource: Space-Track

Epoch: Sep 6, 2026, 09:46 UTC

1 49342U 18079ET  26249.40722669 -.00000186  00000-0  00000-0 0  9992
2 49342  13.4378  18.1464 4763823 352.4093   2.2607  1.84615685 33864

Track ATLAS 5 CENTAUR DEB in real time with AllMySat

Download on the App Store